When you browse on this site, cookies collect data to enhance your experience and personalize the content and advertising you see.
Visit our Privacy Policy to learn more. By continuing to use the site, you agree to this use of cookies and data.
  • In Latvia
  • List of Countries
  • For 7 days
  • Water Temperature
  • Satellite Maps
  • Weather Map
  • Weather Widgets
  • user-avatar
    Login

    Hourly Weather Karczmarze

    Today, 19 February, Tuesday

    Time Temperature Precipitation Wind Pressure Humidity
    00:00 +4°C° 0 mm 2 mps 747 mmHg 87%
    01:00 +3°C° 0 mm 2 mps 747 mmHg 88%
    02:00 +3°C° 0 mm 2 mps 747 mmHg 89%
    03:00 +2°C° 0 mm 2 mps 747 mmHg 89%
    04:00 +2°C° 0 mm 2 mps 746 mmHg 88%
    05:00 +2°C° 0 mm 2 mps 746 mmHg 88%
    06:00 +2°C° 0 mm 2 mps 746 mmHg 88%
    07:00 +1°C° 0 mm 2 mps 746 mmHg 88%
    08:00 +1°C° 0 mm 2 mps 746 mmHg 88%
    09:00 +3°C° 0 mm 2 mps 745 mmHg 82%
    10:00 +4°C° 0 mm 3 mps 745 mmHg 75%
    11:00 +5°C° 0 mm 3 mps 745 mmHg 69%
    12:00 +8°C° 0 mm 3 mps 745 mmHg 64%
    13:00 +8°C° 0 mm 4 mps 744 mmHg 60%
    14:00 +10°C° 0 mm 4 mps 744 mmHg 55%
    15:00 +10°C° 0 mm 4 mps 744 mmHg 58%
    16:00 +8°C° 0 mm 4 mps 743 mmHg 61%
    17:00 +9°C° 0 mm 3 mps 743 mmHg 63%
    18:00 +7°C° 0 mm 4 mps 743 mmHg 68%
    19:00 +6°C° 0 mm 4 mps 743 mmHg 73%
    20:00 +5°C° 0 mm 4 mps 743 mmHg 77%
    21:00 +4°C° 0 mm 4 mps 743 mmHg 79%
    22:00 +4°C° 0 mm 4 mps 743 mmHg 80%
    23:00 +3°C° 0 mm 5 mps 743 mmHg 81%

    Tomorrow, 20 February, Wednesday

    Time Temperature Precipitation Wind Pressure Humidity
    00:00 +3°C° 0 mm 4 mps 743 mmHg 82%
    01:00 +3°C° 0 mm 4 mps 743 mmHg 83%
    02:00 +3°C° 0 mm 4 mps 743 mmHg 85%
    03:00 +3°C° 0.4 mm 4 mps 743 mmHg 86%
    04:00 +3°C° 0.4 mm 4 mps 743 mmHg 87%
    05:00 +2°C° 0.4 mm 5 mps 743 mmHg 88%
    06:00 +3°C° 0.1 mm 4 mps 743 mmHg 90%
    07:00 +3°C° 0.1 mm 4 mps 743 mmHg 92%
    08:00 +1°C° 0.1 mm 4 mps 744 mmHg 93%
    09:00 +2°C° 0.1 mm 5 mps 744 mmHg 89%
    10:00 +2°C° 0.1 mm 6 mps 744 mmHg 85%
    11:00 +3°C° 0.1 mm 6 mps 745 mmHg 80%
    12:00 +3°C° 0.1 mm 6 mps 745 mmHg 76%
    13:00 +4°C° 0.1 mm 6 mps 745 mmHg 73%
    14:00 +4°C° 0.1 mm 6 mps 745 mmHg 69%
    15:00 +4°C° 0.1 mm 6 mps 745 mmHg 68%
    16:00 +4°C° 0.1 mm 6 mps 745 mmHg 68%
    17:00 +5°C° 0.1 mm 5 mps 745 mmHg 67%
    18:00 +3°C° 0.1 mm 5 mps 746 mmHg 70%
    19:00 +3°C° 0.1 mm 5 mps 746 mmHg 73%
    20:00 +2°C° 0.1 mm 5 mps 747 mmHg 76%
    21:00 +2°C° 0 mm 5 mps 747 mmHg 76%
    22:00 +3°C° 0 mm 4 mps 747 mmHg 76%
    23:00 +3°C° 0 mm 4 mps 747 mmHg 76%

    Day after tomorrow, 21 February, Thursday

    Time Temperature Precipitation Wind Pressure Humidity
    00:00 +3°C° 0 mm 4 mps 747 mmHg 77%
    01:00 +3°C° 0 mm 4 mps 747 mmHg 77%
    02:00 +3°C° 0 mm 4 mps 747 mmHg 77%
    03:00 +3°C° 0 mm 4 mps 747 mmHg 80%
    04:00 +3°C° 0 mm 4 mps 747 mmHg 83%
    05:00 +3°C° 0 mm 4 mps 747 mmHg 85%
    06:00 +3°C° 0 mm 4 mps 747 mmHg 86%
    07:00 +3°C° 0 mm 4 mps 747 mmHg 87%
    08:00 +3°C° 0 mm 4 mps 747 mmHg 88%
    09:00 +3°C° 0.1 mm 5 mps 747 mmHg 82%
    10:00 +4°C° 0.1 mm 6 mps 747 mmHg 77%
    11:00 +4°C° 0.1 mm 6 mps 747 mmHg 71%
    12:00 +4°C° 0.2 mm 6 mps 747 mmHg 72%
    13:00 +4°C° 0.2 mm 6 mps 747 mmHg 72%
    14:00 +4°C° 0.2 mm 6 mps 746 mmHg 73%
    15:00 +4°C° 0.2 mm 6 mps 746 mmHg 76%
    16:00 +4°C° 0.2 mm 6 mps 746 mmHg 80%
    17:00 +4°C° 0.2 mm 6 mps 745 mmHg 83%
    18:00 +4°C° 0.8 mm 6 mps 745 mmHg 85%
    19:00 +4°C° 0.8 mm 6 mps 745 mmHg 87%
    20:00 +3°C° 0.8 mm 6 mps 745 mmHg 89%
    21:00 +4°C° 0.4 mm 6 mps 745 mmHg 90%
    22:00 +4°C° 0.4 mm 6 mps 745 mmHg 90%
    23:00 +4°C° 0.4 mm 6 mps 745 mmHg 91%

    22 February, Friday

    Time Temperature Precipitation Wind Pressure Humidity
    00:00 +5°C° 0.4 mm 5 mps 746 mmHg 91%
    01:00 +5°C° 0.4 mm 5 mps 746 mmHg 92%
    02:00 +5°C° 0.4 mm 5 mps 746 mmHg 92%
    03:00 +3°C° 0.6 mm 5 mps 747 mmHg 90%
    04:00 +2°C° 0.6 mm 6 mps 747 mmHg 88%
    05:00 0°C° 0.6 mm 7 mps 747 mmHg 86%
    06:00 -1°C° 0 mm 7 mps 749 mmHg 82%
    07:00 -2°C° 0 mm 6 mps 750 mmHg 78%
    08:00 -3°C° 0 mm 6 mps 751 mmHg 75%
    09:00 -3°C° 0 mm 6 mps 752 mmHg 70%
    10:00 -3°C° 0 mm 6 mps 753 mmHg 65%
    11:00 -2°C° 0 mm 5 mps 754 mmHg 60%
    12:00 -3°C° 0 mm 6 mps 755 mmHg 57%
    13:00 -3°C° 0 mm 6 mps 756 mmHg 55%
    14:00 -3°C° 0 mm 6 mps 756 mmHg 53%
    15:00 -3°C° 0 mm 6 mps 757 mmHg 53%
    16:00 -4°C° 0 mm 6 mps 757 mmHg 52%
    17:00 -4°C° 0 mm 6 mps 758 mmHg 52%
    18:00 -5°C° 0 mm 5 mps 759 mmHg 52%
    19:00 -5°C° 0 mm 5 mps 759 mmHg 51%
    20:00 -5°C° 0 mm 4 mps 760 mmHg 50%
    21:00 -5°C° 0 mm 4 mps 760 mmHg 49%
    22:00 -5°C° 0 mm 4 mps 761 mmHg 47%
    23:00 -5°C° 0 mm 4 mps 761 mmHg 45%

    23 February, Saturday

    Time Temperature Precipitation Wind Pressure Humidity
    00:00 -5°C° 0 mm 3 mps 762 mmHg 44%
    01:00 -4°C° 0 mm 3 mps 762 mmHg 43%
    02:00 -4°C° 0 mm 3 mps 762 mmHg 42%
    03:00 -5°C° 0 mm 3 mps 762 mmHg 42%
    04:00 -4°C° 0 mm 2 mps 762 mmHg 42%
    05:00 -4°C° 0 mm 2 mps 761 mmHg 42%
    06:00 -4°C° 0 mm 2 mps 762 mmHg 42%
    07:00 -4°C° 0 mm 2 mps 762 mmHg 43%
    08:00 -4°C° 0 mm 2 mps 762 mmHg 43%
    09:00 -3°C° 0 mm 2 mps 762 mmHg 38%
    10:00 -2°C° 0 mm 2 mps 761 mmHg 34%
    11:00 -1°C° 0 mm 2 mps 761 mmHg 29%
    12:00 -1°C° 0 mm 2 mps 760 mmHg 30%
    13:00 -1°C° 0 mm 3 mps 760 mmHg 30%
    14:00 -1°C° 0 mm 3 mps 759 mmHg 31%
    15:00 -1°C° 0 mm 3 mps 759 mmHg 35%
    16:00 -1°C° 0 mm 3 mps 758 mmHg 40%
    17:00 -2°C° 0 mm 3 mps 758 mmHg 45%
    18:00 -2°C° 0 mm 3 mps 757 mmHg 46%
    19:00 -2°C° 0 mm 2 mps 757 mmHg 48%
    20:00 -2°C° 0 mm 2 mps 757 mmHg 50%
    21:00 -1°C° 0 mm 2 mps 757 mmHg 49%
    22:00 -1°C° 0 mm 2 mps 757 mmHg 48%
    23:00 -1°C° 0 mm 2 mps 757 mmHg 47%

    24 February, Sunday

    Time Temperature Precipitation Wind Pressure Humidity
    00:00 -1°C° 0 mm 2 mps 756 mmHg 49%
    01:00 -1°C° 0 mm 2 mps 756 mmHg 52%
    02:00 -1°C° 0 mm 2 mps 756 mmHg 55%
    03:00 -2°C° 0 mm 2 mps 756 mmHg 60%
    04:00 -2°C° 0 mm 2 mps 756 mmHg 65%
    05:00 0°C° 0 mm 1 mps 756 mmHg 70%
    06:00 -2°C° 0 mm 2 mps 756 mmHg 73%
    07:00 -2°C° 0 mm 2 mps 756 mmHg 75%
    08:00 -2°C° 0 mm 2 mps 756 mmHg 78%
    09:00 -1°C° 0 mm 2 mps 756 mmHg 79%
    10:00 +1°C° 0 mm 2 mps 756 mmHg 79%
    11:00 +1°C° 0 mm 3 mps 756 mmHg 79%
    12:00 +1°C° 0 mm 3 mps 756 mmHg 82%
    13:00 +2°C° 0 mm 3 mps 755 mmHg 85%
    14:00 +2°C° 0 mm 3 mps 755 mmHg 87%
    15:00 +2°C° 0 mm 3 mps 754 mmHg 89%
    16:00 +2°C° 0 mm 3 mps 754 mmHg 90%
    17:00 +3°C° 0 mm 2 mps 753 mmHg 92%
    18:00 +2°C° 0 mm 3 mps 753 mmHg 93%
    19:00 +1°C° 0 mm 3 mps 752 mmHg 94%
    20:00 +1°C° 0 mm 3 mps 752 mmHg 95%
    21:00 0°C° 0 mm 3 mps 751 mmHg 95%
    22:00 0°C° 0 mm 3 mps 751 mmHg 95%
    23:00 -1°C° 0 mm 4 mps 750 mmHg 95%
    Show more